Time,TemperatureF,DewpointF,PressureIn,WindDirection,WindDirectionDegrees,WindSpeedMPH,WindSpeedGustMPH,Humidity,HourlyPrecipIn,Conditions,Clouds,dailyrainin,SoftwareType,DateUTC
2013-01-23 00:15:00,17.1,-3.7,30.28,NNW,339,13.0,15.0,39,0.00,CLR,,0.00,WeatherDisplay:10.37,2013-01-23 05:15:00,
2013-01-23 00:30:00,17.1,-3.7,30.28,NNW,334,14.0,19.0,39,0.00,CLR,,0.00,WeatherDisplay:10.37,2013-01-23 05:30:00,
2013-01-23 00:45:00,16.5,-4.2,30.28,NNW,339,16.0,21.0,39,0.00,CLR,,0.00,WeatherDisplay:10.37,2013-01-23 05:45:00,
2013-01-23 01:00:00,16.3,-4.3,30.28,NNW,329,13.0,21.0,39,0.00,CLR,,0.00,WeatherDisplay:10.37,2013-01-23 06:00:00,
2013-01-23 01:15:00,16.3,-4.3,30.28,NNW,333,10.0,14.0,39,0.00,CLR,,0.00,WeatherDisplay:10.37,2013-01-23 06:15:00,
2013-01-23 01:30:00,16.2,-4.5,30.28,NW,322,10.0,14.0,39,0.00,CLR,,0.00,WeatherDisplay:10.37,2013-01-23 06:30:00,
2013-01-23 01:45:00,16.2,-4.5,30.28,NW,324,9.0,13.0,39,0.00,CLR,,0.00,WeatherDisplay:10.37,2013-01-23 06:45:00,
2013-01-23 02:00:00,16.3,-4.3,30.28,NW,326,10.0,17.0,39,0.00,CLR,,0.00,WeatherDisplay:10.37,2013-01-23 07:00:00,
2013-01-23 02:15:00,16.5,-4.2,30.28,NW,326,12.0,17.0,39,0.00,CLR,,0.00,WeatherDisplay:10.37,2013-01-23 07:15:00,
2013-01-23 02:30:00,16.7,-4.0,30.28,NW,321,9.0,12.0,39,0.00,CLR,,0.00,WeatherDisplay:10.37,2013-01-23 07:30:00,
2013-01-23 02:45:00,17.1,-3.7,30.28,NW,312,9.0,14.0,39,0.00,CLR,,0.00,WeatherDisplay:10.37,2013-01-23 07:45:00,
2013-01-23 03:00:00,16.9,-3.8,30.28,NW,321,13.0,17.0,39,0.00,CLR,,0.00,WeatherDisplay:10.37,2013-01-23 08:00:00,
2013-01-23 03:15:00,17.1,-3.7,30.28,NW,314,15.0,17.0,39,0.00,FEW,,0.00,WeatherDisplay:10.37,2013-01-23 08:15:00,
2013-01-23 03:30:00,16.7,-4.0,30.28,NW,312,15.0,16.0,39,0.00,FEW,,0.00,WeatherDisplay:10.37,2013-01-23 08:30:00,
2013-01-23 03:45:00,16.9,-3.8,30.28,NW,313,13.0,18.0,39,0.00,BKN,,0.00,WeatherDisplay:10.37,2013-01-23 08:45:00,
2013-01-23 04:00:00,16.7,-4.0,30.28,WNW,294,15.0,18.0,39,0.00,BKN,,0.00,WeatherDisplay:10.37,2013-01-23 09:00:00,
2013-01-23 04:15:00,16.3,-4.3,30.28,NW,307,13.0,17.0,39,0.00,SCT,,0.00,WeatherDisplay:10.37,2013-01-23 09:15:00,
2013-01-23 04:30:00,16.0,-4.7,30.28,NW,308,12.0,14.0,39,0.00,SCT,,0.00,WeatherDisplay:10.37,2013-01-23 09:30:00,
2013-01-23 04:45:00,16.3,-4.3,30.28,WNW,301,14.0,17.0,39,0.00,SCT,,0.00,WeatherDisplay:10.37,2013-01-23 09:45:00,
2013-01-23 05:00:00,16.2,-4.5,30.28,WNW,299,13.0,15.0,39,0.00,SCT,,0.00,WeatherDisplay:10.37,2013-01-23 10:00:00,
2013-01-23 05:15:00,16.2,-4.5,30.28,NW,309,14.0,17.0,39,0.00,FEW,,0.00,WeatherDisplay:10.37,2013-01-23 10:15:00,
2013-01-23 05:30:00,16.2,-4.5,30.28,NW,315,13.0,17.0,39,0.00,BKN,,0.00,WeatherDisplay:10.37,2013-01-23 10:30:00,
2013-01-23 05:45:00,16.2,-4.5,30.28,WNW,301,12.0,15.0,39,0.00,BKN,,0.00,WeatherDisplay:10.37,2013-01-23 10:45:00,
2013-01-23 06:00:00,16.0,-4.7,30.31,WNW,302,12.0,15.0,39,0.00,BKN,,0.00,WeatherDisplay:10.37,2013-01-23 11:00:00,
2013-01-23 06:15:00,16.2,-4.5,30.28,WNW,301,13.0,18.0,39,0.00,BKN,,0.00,WeatherDisplay:10.37,2013-01-23 11:15:00,
2013-01-23 06:30:00,16.0,-4.7,30.31,NW,309,13.0,16.0,39,0.00,BKN,,0.00,WeatherDisplay:10.37,2013-01-23 11:30:00,
2013-01-23 06:45:00,15.8,-4.8,30.31,WNW,302,13.0,16.0,39,0.00,SCT,,0.00,WeatherDisplay:10.37,2013-01-23 11:45:00,
2013-01-23 07:00:00,16.3,-4.3,30.31,NW,307,13.0,16.0,39,0.00,SCT,,0.00,WeatherDisplay:10.37,2013-01-23 12:00:00,
2013-01-23 07:15:00,16.0,-4.7,30.31,NW,306,14.0,17.0,39,0.00,SCT,,0.00,WeatherDisplay:10.37,2013-01-23 12:15:00,
2013-01-23 07:30:00,15.8,-4.8,30.31,NW,309,14.0,16.0,39,0.00,BKN,,0.00,WeatherDisplay:10.37,2013-01-23 12:30:00,
2013-01-23 07:45:00,16.0,-4.7,30.31,NW,307,13.0,18.0,39,0.00,BKN,,0.00,WeatherDisplay:10.37,2013-01-23 12:45:00,
2013-01-23 08:00:00,16.7,-4.0,30.31,WNW,289,13.0,18.0,39,0.00,BKN,,0.00,WeatherDisplay:10.37,2013-01-23 13:00:00,
2013-01-23 08:30:00,16.7,-4.0,30.31,WNW,291,10.0,21.0,39,0.00,BKN,,0.00,WeatherDisplay:10.37,2013-01-23 13:30:00,
2013-01-23 08:45:00,17.1,-3.7,30.31,WNW,303,12.0,16.0,39,0.00,BKN,,0.00,WeatherDisplay:10.37,2013-01-23 13:45:00,
2013-01-23 09:00:00,18.3,-2.5,30.34,NW,306,14.0,16.0,39,0.00,BKN,,0.00,WeatherDisplay:10.37,2013-01-23 14:00:00,
2013-01-23 09:15:00,18.5,-2.4,30.31,NW,305,14.0,16.0,39,0.00,SCT,,0.00,WeatherDisplay:10.37,2013-01-23 14:15:00,
2013-01-23 09:30:00,19.4,-1.6,30.31,WNW,287,13.0,14.0,39,0.00,BKN,,0.00,WeatherDisplay:10.37,2013-01-23 14:30:00,
2013-01-23 09:45:00,19.4,-1.6,30.31,WNW,290,10.0,13.0,39,0.00,BKN,,0.00,WeatherDisplay:10.37,2013-01-23 14:45:00,
2013-01-23 10:00:00,20.1,-0.9,30.34,NW,318,13.0,18.0,39,0.00,BKN,,0.00,WeatherDisplay:10.37,2013-01-23 15:00:00,
2013-01-23 10:15:00,19.4,-1.6,30.34,NW,311,12.0,13.0,39,0.00,SCT,,0.00,WeatherDisplay:10.37,2013-01-23 15:15:00,
2013-01-23 10:30:00,20.5,-0.6,30.34,WNW,301,12.0,16.0,39,0.00,SCT,,0.00,WeatherDisplay:10.37,2013-01-23 15:30:00,
2013-01-23 10:45:00,20.5,-0.6,30.31,NW,313,15.0,21.0,39,0.00,SCT,,0.00,WeatherDisplay:10.37,2013-01-23 15:45:00,
2013-01-23 11:00:00,20.5,-0.6,30.31,WNW,302,13.0,16.0,39,0.00,BKN,,0.00,WeatherDisplay:10.37,2013-01-23 16:00:00,
2013-01-23 11:15:00,20.5,-0.6,30.31,WNW,295,12.0,16.0,39,0.00,BKN,,0.00,WeatherDisplay:10.37,2013-01-23 16:15:00,
2013-01-23 11:30:00,20.8,-0.3,30.31,WNW,299,13.0,14.0,39,0.00,BKN,,0.00,WeatherDisplay:10.37,2013-01-23 16:30:00,
2013-01-23 11:45:00,21.7,0.5,30.31,WNW,298,14.0,15.0,39,0.00,BKN,,0.00,WeatherDisplay:10.37,2013-01-23 16:45:00,
2013-01-23 12:00:00,21.7,0.5,30.28,WNW,289,14.0,15.0,39,0.00,BKN,,0.00,WeatherDisplay:10.37,2013-01-23 17:00:00,
2013-01-23 12:15:00,21.6,0.4,30.28,WNW,298,13.0,17.0,39,0.00,SCT,,0.00,WeatherDisplay:10.37,2013-01-23 17:15:00,
2013-01-23 12:30:00,21.9,0.7,30.25,NW,305,13.0,15.0,39,0.00,SCT,,0.00,WeatherDisplay:10.37,2013-01-23 17:30:00,
2013-01-23 12:45:00,21.2,0.1,30.25,WNW,296,12.0,12.0,39,0.00,SCT,,0.00,WeatherDisplay:10.37,2013-01-23 17:45:00,
2013-01-23 13:00:00,22.5,1.2,30.25,WNW,285,13.0,17.0,39,0.00,FEW,,0.00,WeatherDisplay:10.37,2013-01-23 18:00:00,
2013-01-23 13:15:00,22.5,1.2,30.22,WNW,292,14.0,17.0,39,0.00,FEW,,0.00,WeatherDisplay:10.37,2013-01-23 18:15:00,
2013-01-23 13:30:00,22.3,1.0,30.22,WNW,285,13.0,15.0,39,0.00,FEW,,0.00,WeatherDisplay:10.37,2013-01-23 18:30:00,
2013-01-23 13:45:00,22.6,1.4,30.22,WNW,294,12.0,14.0,39,0.00,FEW,,0.00,WeatherDisplay:10.37,2013-01-23 18:45:00,
2013-01-23 14:00:00,22.6,1.4,30.22,WNW,296,14.0,21.0,39,0.00,CLR,,0.00,WeatherDisplay:10.37,2013-01-23 19:00:00,
2013-01-23 14:15:00,22.6,1.4,30.22,West,277,13.0,15.0,39,0.00,CLR,,0.00,WeatherDisplay:10.37,2013-01-23 19:15:00,
2013-01-23 14:30:00,23.0,1.7,30.22,NW,310,12.0,15.0,39,0.00,CLR,,0.00,WeatherDisplay:10.37,2013-01-23 19:30:00,
2013-01-23 14:45:00,22.8,1.5,30.22,NW,307,12.0,14.0,39,0.00,CLR,,0.00,WeatherDisplay:10.37,2013-01-23 19:45:00,
2013-01-23 15:00:00,22.6,1.4,30.22,WNW,300,14.0,16.0,39,0.00,CLR,,0.00,WeatherDisplay:10.37,2013-01-23 20:00:00,
2013-01-23 15:15:00,22.3,1.0,30.22,NW,306,13.0,19.0,39,0.00,CLR,,0.00,WeatherDisplay:10.37,2013-01-23 20:15:00,
2013-01-23 15:30:00,22.5,1.2,30.22,NW,306,15.0,20.0,39,0.00,CLR,,0.00,WeatherDisplay:10.37,2013-01-23 20:30:00,
2013-01-23 15:45:00,22.1,0.9,30.22,WNW,297,14.0,17.0,39,0.00,SCT,,0.00,WeatherDisplay:10.37,2013-01-23 20:45:00,
2013-01-23 16:00:00,22.3,1.0,30.22,West,280,14.0,17.0,39,0.00,SCT,,0.00,WeatherDisplay:10.37,2013-01-23 21:00:00,
2013-01-23 16:15:00,21.6,0.4,30.22,WNW,295,13.0,16.0,39,0.00,FEW,,0.00,WeatherDisplay:10.37,2013-01-23 21:15:00,
2013-01-23 16:30:00,21.9,0.7,30.22,WNW,295,14.0,21.0,39,0.00,FEW,,0.00,WeatherDisplay:10.37,2013-01-23 21:30:00,
2013-01-23 16:45:00,21.7,0.5,30.22,WNW,302,12.0,13.0,39,0.00,SCT,,0.00,WeatherDisplay:10.37,2013-01-23 21:45:00,
2013-01-23 17:00:00,20.8,-0.3,30.22,WNW,303,9.0,14.0,39,0.00,SCT,,0.00,WeatherDisplay:10.37,2013-01-23 22:00:00,
2013-01-23 17:15:00,20.8,-0.3,30.22,WNW,291,10.0,13.0,39,0.00,BKN,,0.00,WeatherDisplay:10.37,2013-01-23 22:15:00,
2013-01-23 17:30:00,20.5,-0.6,30.22,WNW,303,13.0,14.0,39,0.00,BKN,,0.00,WeatherDisplay:10.37,2013-01-23 22:30:00,
2013-01-23 17:45:00,20.3,-0.8,30.22,WNW,300,9.0,10.0,39,0.00,FEW,,0.00,WeatherDisplay:10.37,2013-01-23 22:45:00,
2013-01-23 18:00:00,20.5,-0.6,30.22,WNW,294,6.0,13.0,39,0.00,CLR,,0.00,WeatherDisplay:10.37,2013-01-23 23:00:00,
2013-01-23 18:15:00,20.7,-0.4,30.25,NW,310,8.0,13.0,39,0.00,CLR,,0.00,WeatherDisplay:10.37,2013-01-23 23:15:00,
2013-01-23 18:30:00,21.0,-0.1,30.22,WNW,296,9.0,14.0,39,0.00,CLR,,0.00,WeatherDisplay:10.37,2013-01-23 23:30:00,
2013-01-23 18:45:00,21.6,0.4,30.22,NW,320,8.0,10.0,39,0.00,CLR,,0.00,WeatherDisplay:10.37,2013-01-23 23:45:00,
2013-01-23 19:00:00,21.7,0.5,30.22,WNW,296,8.0,12.0,39,0.00,BKN,,0.00,WeatherDisplay:10.37,2013-01-24 00:00:00,
2013-01-23 19:15:00,21.9,0.7,30.22,NW,307,6.0,7.0,39,0.00,BKN,,0.00,WeatherDisplay:10.37,2013-01-24 00:15:00,
2013-01-23 19:30:00,21.9,0.7,30.22,WNW,292,5.0,6.0,39,0.00,BKN,,0.00,WeatherDisplay:10.37,2013-01-24 00:30:00,
2013-01-23 19:45:00,21.9,0.7,30.22,NW,305,5.0,6.0,39,0.00,OVC,,0.00,WeatherDisplay:10.37,2013-01-24 00:45:00,
2013-01-23 20:00:00,21.7,0.5,30.22,NW,304,2.0,5.0,39,0.00,OVC,,0.00,WeatherDisplay:10.37,2013-01-24 01:00:00,
2013-01-23 20:15:00,21.9,0.7,30.22,NW,325,1.0,5.0,39,0.00,OVC,,0.00,WeatherDisplay:10.37,2013-01-24 01:15:00,
2013-01-23 20:30:00,21.4,0.2,30.22,NNW,340,2.0,4.0,39,0.00,OVC,,0.00,WeatherDisplay:10.37,2013-01-24 01:30:00,
2013-01-23 20:45:00,20.5,-0.6,30.22,NE,49,1.0,1.0,39,0.00,OVC,,0.00,WeatherDisplay:10.37,2013-01-24 01:45:00,
2013-01-23 21:00:00,19.6,-1.4,30.19,NE,39,1.0,4.0,39,0.00,OVC,,0.00,WeatherDisplay:10.37,2013-01-24 02:00:00,
2013-01-23 21:15:00,19.2,-1.7,30.22,NE,43,1.0,4.0,39,0.00,OVC,,0.00,WeatherDisplay:10.37,2013-01-24 02:15:00,
2013-01-23 21:30:00,18.9,-2.1,30.19,NE,42,1.0,2.0,39,0.00,OVC,,0.00,WeatherDisplay:10.37,2013-01-24 02:30:00,
2013-01-23 21:45:00,18.7,-2.2,30.19,NE,36,1.0,2.0,39,0.00,OVC,,0.00,WeatherDisplay:10.37,2013-01-24 02:45:00,
2013-01-23 22:00:00,18.7,-2.2,30.19,NE,35,1.0,1.0,39,0.00,OVC,,0.00,WeatherDisplay:10.37,2013-01-24 03:00:00,
2013-01-23 22:15:00,18.7,-2.2,30.19,NE,45,0.0,1.0,39,0.00,OVC,,0.00,WeatherDisplay:10.37,2013-01-24 03:15:00,
2013-01-23 22:30:00,18.7,-2.2,30.19,NNE,32,1.0,2.0,39,0.00,OVC,,0.00,WeatherDisplay:10.37,2013-01-24 03:30:00,
2013-01-23 22:45:00,18.7,-2.2,30.19,NE,40,0.0,0.0,39,0.00,OVC,,0.00,WeatherDisplay:10.37,2013-01-24 03:45:00,
2013-01-23 23:00:00,18.9,-2.1,30.19,NE,46,0.0,1.0,39,0.00,OVC,,0.00,WeatherDisplay:10.37,2013-01-24 04:00:00,
2013-01-23 23:15:00,18.9,-2.1,30.19,NE,54,0.0,0.0,39,0.00,OVC,,0.00,WeatherDisplay:10.37,2013-01-24 04:15:00,
2013-01-23 23:30:00,19.0,-1.9,30.19,NNE,31,0.0,0.0,39,0.00,OVC,,0.00,WeatherDisplay:10.37,2013-01-24 04:30:00,
2013-01-23 23:45:00,19.0,-1.9,30.19,NNE,31,0.0,1.0,39,0.00,OVC,,0.00,WeatherDisplay:10.37,2013-01-24 04:45:00,